[[{"header":{"parameterUnit":"m.s-1","parameterCategory":1,"la1":30.2991,"la2":30.254,"lo1":-89.0895,"lo2":-89.0444,"dy":0.0017,"dx":0.0017,"nx":28,"ny":28,"refTime":"2024-06-06T09:00:00:Z","depth":0,"parameterNumber":2,"parameterNumberName":"U-component_of_WINDS"},"data":[0,0,0,0,0,0,0,0,0,0,0,0,0,0,0,0,0,0,0,0,0,0,0,0,0,0,0,0,0,0,0,0,0,0,0,0,0,0,0,0,0,0,0,0,0,0,0,0,0,0,0,0,0,0,0,0,0,0,-1.1108,-1.1108,0,-1.1076,-1.1075,-1.1075,-1.1003,-1.1002,-1.1,-1.0999,-1.0968,-1.0969,-1.097,0,0,0,0,0,0,0,0,0,0,0,0,0,-1.1111,-1.1112,-1.1108,-1.1108,-1.1107,-1.1076,-1.1075,-1.1075,-1.1004,-1.1002,-1.1,-1.0998,-1.0968,-1.0969,-1.097,0,0,0,0,0,0,0,0,0,0,0,0,0,-1.1098,-1.1112,-1.1108,-1.1068,-1.1064,-1.1076,-1.1075,-1.1075,-1.1004,-1.1002,-1.0999,-1.0997,-1.0968,-1.0969,-1.097,-1.1019,0,0,-1.0972,-1.0973,0,0,0,0,0,0,0,0,-1.1098,-1.1098,-1.1074,-1.1071,-1.1066,-1.1041,-1.1065,-1.1056,-1.1004,-1.1027,-1.0999,-1.0996,-1.0995,-1.0993,-1.0992,-1.1018,-1.1016,-1.0972,-1.0973,-1.0973,-1.0973,0,0,0,0,0,0,0,-1.1099,-1.1099,-1.1095,-1.1074,-1.1069,-1.1052,-1.1048,-1.1063,-1.1024,-1.1025,-1.1019,-1.1016,-1.0992,-1.0991,-1.0991,-1.1016,-1.0972,-1.0973,-1.0974,-1.0974,-1.1081,-1.1084,0,0,0,0,0,0,-1.1106,-1.11,-1.1096,-1.1094,-1.1077,-1.1054,-1.1049,-1.1052,-1.1023,-1.1017,-1.1018,-1.1013,-1.0991,-1.099,-1.0989,-1.1046,-1.0973,-1.0974,-1.0974,-1.1079,-1.1082,-1.1085,0,0,0,0,0,0,-1.1106,-1.1106,-1.1098,-1.1096,-1.1093,-1.1056,-1.106,-1.1052,-1.1051,-1.1018,-1.1011,-1.1025,-1.0989,-1.0988,-1.1012,-1.1044,-1.0974,-1.0975,-1.1076,-1.108,-1.1083,-1.116,0,0,0,0,0,0,-1.1107,-1.1107,-1.1125,-1.1097,-1.1094,-1.1121,-1.1062,-1.1053,-1.1053,-1.1046,-1.1022,-1.1017,-1.0987,-1.1011,-1.1013,-1.1044,-1.0976,-1.1073,-1.1078,-1.1082,-1.1154,-1.1165,-1.1175,0,0,0,0,0,-1.1107,-1.1148,-1.1126,-1.1126,-1.1115,-1.1122,-1.1121,-1.1086,-1.1055,-1.1073,-1.1052,-1.1017,-1.104,-1.1014,-1.1016,-1.1047,-1.1071,-1.1077,-1.1082,-1.115,-1.1163,-1.1175,0,0,0,0,0,0,-1.1181,-1.1143,-1.1119,-1.1151,-1.1141,-1.111,-1.1132,-1.1101,-1.11,-1.1093,-1.1051,-1.1046,-1.1076,-1.1064,-1.1036,-1.1094,-1.105,-1.1056,-1.1101,-1.1114,-1.1124,-1.1127,-1.0977,0,0,0,0,0,-1.1201,-1.121,-1.1176,-1.1209,-1.1204,-1.1169,-1.1171,-1.1145,-1.1133,-1.1128,-1.1109,-1.1099,-1.1104,-1.1108,-1.111,-1.1152,-1.1146,-1.1174,-1.1185,-1.1193,-1.1199,-1.1221,-1.1234,-1.1102,-1.1102,-1.1102,0,0,-1.1243,-1.1224,-1.1232,-1.1223,-1.1212,-1.1223,-1.1166,-1.118,-1.1188,-1.113,-1.1152,-1.1138,-1.1124,-1.1157,-1.117,-1.1148,-1.1234,-1.12,-1.1207,-1.1208,-1.1228,-1.1241,-1.1252,-1.1105,-1.1105,-1.1104,0,0,-1.1325,-1.1311,-1.1336,-1.1326,-1.1309,-1.1285,-1.1292,-1.1266,-1.1254,-1.1275,-1.1232,-1.1241,-1.1251,-1.1243,-1.124,-1.1319,-1.1287,-1.1321,-1.1376,-1.1398,-1.1409,-1.1418,-1.1447,-1.1458,-1.1327,-1.1327,-1.1327,0,-1.138,-1.1393,-1.1354,-1.137,-1.1368,-1.1316,-1.1342,-1.1334,-1.132,-1.132,-1.1294,-1.1305,-1.1292,-1.1323,-1.1342,-1.1341,-1.1348,-1.1324,-1.141,-1.1419,-1.1427,-1.1454,-1.1465,-1.1332,-1.1331,-1.1331,-1.133,0,-1.1462,-1.1472,-1.1495,-1.1481,-1.1482,-1.1503,-1.1468,-1.1473,-1.1447,-1.1426,-1.1449,-1.1431,-1.143,-1.1435,-1.141,-1.1463,-1.1449,-1.1418,-1.1373,-1.1444,-1.1469,-1.148,-1.1338,-1.1336,-1.1335,-1.1334,0,0,-1.159,-1.1554,-1.1563,-1.1557,-1.1535,-1.1542,-1.1562,-1.1559,-1.1565,-1.1557,-1.1573,-1.1582,-1.1553,-1.155,-1.1523,-1.1542,-1.1608,-1.1508,-1.1507,-1.1528,-1.1667,-1.1692,-1.1704,-1.1586,-1.1588,-1.1589,-1.1668,0,-1.1668,-1.1698,-1.1663,-1.1701,-1.1711,-1.1661,-1.1678,-1.1667,-1.1649,-1.1655,-1.1634,-1.1642,-1.1602,-1.16,-1.1616,-1.1596,-1.1635,-1.159,-1.1602,-1.1603,-1.1608,-1.1717,-1.1744,-1.1819,-1.1678,-1.1679,-1.168,0,-1.1763,-1.1758,-1.1797,-1.1773,-1.1776,-1.1792,-1.1787,-1.1793,-1.178,-1.1765,-1.1762,-1.173,-1.1748,-1.1703,-1.1729,-1.1699,-1.1702,-1.1693,-1.1695,-1.1696,-1.1647,-1.1722,-1.1842,-1.1854,-1.1695,-1.1694,-1.1693,0,-1.1854,-1.1858,-1.1882,-1.1878,-1.185,-1.1862,-1.1851,-1.1835,-1.1837,-1.1833,-1.1833,-1.1832,-1.1832,-1.1832,-1.1801,-1.1772,-1.1831,-1.1784,-1.1821,-1.1822,-1.1837,-1.1836,-1.196,-1.1837,-1.1836,-1.1836,-1.1836,0,-1.1945,-1.1971,-1.1923,-1.1938,-1.1966,-1.1925,-1.1955,-1.1939,-1.1925,-1.1937,-1.1894,-1.1907,-1.1864,-1.1872,-1.1848,-1.1874,-1.1873,-1.1863,-1.1856,-1.1867,-1.1869,-1.187,-1.1864,-1.1839,-1.1838,-1.1838,-1.1837,0,-1.2053,-1.2021,-1.2044,-1.2015,-1.2008,-1.2031,-1.2007,-1.202,-1.1998,-1.2014,-1.2015,-1.1982,-1.1989,-1.1958,-1.196,-1.1943,-1.1982,-1.1966,-1.1987,-1.1982,-1.2021,-1.2019,-1.215,-1.2166,-1.2032,-1.2033,-1.2034,0,-1.2113,-1.2132,-1.2105,-1.211,-1.2101,-1.2109,-1.2109,-1.2071,-1.2073,-1.206,-1.2075,-1.2079,-1.2079,-1.2094,-1.207,-1.2072,-1.2056,-1.2102,-1.2057,-1.2067,-1.2059,-1.2058,-1.2061,-1.2113,-1.2114,-1.2116,-1.2117,0,-1.2225,-1.2209,-1.2211,-1.2208,-1.221,-1.2206,-1.2199,-1.2205,-1.2164,-1.2169,-1.2176,-1.2176,-1.2178,-1.2183,-1.2179,-1.2169,-1.2137,-1.2131,-1.214,-1.2152,-1.2164,-1.2159,-1.2014,-1.2129,-1.2127,-1.2127,-1.2126,-1.2125,-1.2312,-1.2327,-1.231,-1.2314,-1.2305,-1.23,-1.2311,-1.2291,-1.2295,-1.2293,-1.227,-1.2281,-1.2268,-1.226,-1.2253,-1.2262,-1.224,-1.2253,-1.2256,-1.226,-1.2268,-1.2161,-1.2261,-1.2261,-1.226,-1.226,-1.226,0,-1.2423,-1.2409,-1.2413,-1.2405,-1.2409,-1.2376,-1.2367,-1.2373,-1.2383,-1.2373,-1.2374,-1.2383,-1.2387,-1.2364,-1.2365,-1.2377,-1.2362,-1.2379,-1.2378,-1.2377,-1.2286,-1.2279,-1.2391,-1.2391,-1.2391,-1.2391,-1.2391,-1.2391,-1.2481,-1.2504,-1.2486,-1.2505,-1.2491,-1.2501,-1.2499,-1.2495,-1.2486,-1.2497,-1.25,-1.2484,-1.2469,-1.2469,-1.2472,-1.2465,-1.2469,-1.2491,-1.2479,-1.2395,-1.2383,-1.2371,-1.2364,-1.2491,-1.2491,-1.2568,-1.2569,-1.257]},{"header":{"parameterUnit":"m.s-1","parameterCategory":1,"la1":30.2991,"la2":30.254,"lo1":-89.0895,"lo2":-89.0444,"dy":0.0017,"dx":0.0017,"nx":28,"ny":28,"refTime":"2024-06-06T09:00:00:Z","depth":0,"parameterNumber":3,"parameterNumberName":"V-component_of_WINDS"},"data":[0,0,0,0,0,0,0,0,0,0,0,0,0,0,0,0,0,0,0,0,0,0,0,0,0,0,0,0,0,0,0,0,0,0,0,0,0,0,0,0,0,0,0,0,0,0,0,0,0,0,0,0,0,0,0,0,0,0,-0.687,-0.687,0,-0.6884,-0.6884,-0.6884,-0.6857,-0.6856,-0.6855,-0.6854,-0.6869,-0.687,-0.6871,0,0,0,0,0,0,0,0,0,0,0,0,0,-0.682,-0.6821,-0.6869,-0.687,-0.687,-0.6884,-0.6884,-0.6884,-0.6857,-0.6856,-0.6855,-0.6854,-0.6869,-0.687,-0.6872,0,0,0,0,0,0,0,0,0,0,0,0,0,-0.6839,-0.6821,-0.6869,-0.6858,-0.6857,-0.6884,-0.6884,-0.6884,-0.6857,-0.6856,-0.6854,-0.6853,-0.6868,-0.687,-0.6872,-0.691,0,0,-0.6877,-0.6878,0,0,0,0,0,0,0,0,-0.6838,-0.684,-0.6859,-0.6859,-0.6858,-0.6867,-0.6872,-0.6893,-0.6858,-0.6857,-0.6854,-0.6853,-0.687,-0.6871,-0.6877,-0.6911,-0.6912,-0.6878,-0.6879,-0.688,-0.688,0,0,0,0,0,0,0,-0.6836,-0.684,-0.6875,-0.686,-0.6859,-0.6852,-0.6854,-0.6876,-0.6871,-0.6857,-0.6855,-0.6857,-0.6869,-0.6875,-0.6877,-0.6912,-0.6878,-0.6879,-0.688,-0.6881,-0.698,-0.6981,0,0,0,0,0,0,-0.6836,-0.6839,-0.6875,-0.6876,-0.6844,-0.6854,-0.6856,-0.6865,-0.687,-0.687,-0.6858,-0.6856,-0.6873,-0.6875,-0.6877,-0.6924,-0.688,-0.6881,-0.6882,-0.6978,-0.698,-0.6982,0,0,0,0,0,0,-0.6835,-0.684,-0.6874,-0.6857,-0.6861,-0.6857,-0.6868,-0.6866,-0.6873,-0.6871,-0.687,-0.6866,-0.6872,-0.6875,-0.6903,-0.6924,-0.6882,-0.6884,-0.6976,-0.6979,-0.6981,-0.7016,0,0,0,0,0,0,-0.6834,-0.684,-0.6854,-0.6857,-0.6862,-0.6899,-0.6869,-0.6868,-0.6876,-0.6873,-0.6878,-0.6877,-0.6871,-0.69,-0.6904,-0.6926,-0.6885,-0.6974,-0.6977,-0.698,-0.7013,-0.702,-0.7025,0,0,0,0,0,-0.6832,-0.6863,-0.6855,-0.6859,-0.6879,-0.69,-0.6903,-0.6894,-0.6878,-0.6892,-0.6892,-0.6877,-0.6921,-0.6903,-0.6908,-0.693,-0.6973,-0.6977,-0.698,-0.7011,-0.7018,-0.7025,0,0,0,0,0,0,-0.6863,-0.6863,-0.6854,-0.6887,-0.6894,-0.6895,-0.6914,-0.6902,-0.6914,-0.6911,-0.69,-0.6901,-0.6932,-0.6933,-0.6914,-0.6968,-0.6944,-0.6949,-0.6966,-0.6973,-0.6979,-0.6978,-0.6887,0,0,0,0,0,-0.6873,-0.689,-0.6889,-0.6918,-0.6922,-0.6917,-0.6926,-0.6919,-0.6926,-0.6929,-0.693,-0.6937,-0.6952,-0.6963,-0.6977,-0.7013,-0.7015,-0.7031,-0.7037,-0.7041,-0.7046,-0.7066,-0.7074,-0.6993,-0.6993,-0.6993,0,0,-0.6895,-0.6897,-0.6908,-0.6924,-0.6929,-0.6947,-0.692,-0.694,-0.6953,-0.6932,-0.6958,-0.696,-0.6967,-0.7,-0.7014,-0.7002,-0.7069,-0.7046,-0.705,-0.7051,-0.7071,-0.7078,-0.7085,-0.6995,-0.6995,-0.6994,0,0,-0.6944,-0.6947,-0.6972,-0.6977,-0.6984,-0.6981,-0.6987,-0.6991,-0.6991,-0.7017,-0.7002,-0.7018,-0.7044,-0.705,-0.7057,-0.7109,-0.7097,-0.7114,-0.7145,-0.7165,-0.7172,-0.7177,-0.7197,-0.7204,-0.7118,-0.7118,-0.7118,0,-0.697,-0.6996,-0.6986,-0.7008,-0.7016,-0.6997,-0.7023,-0.7028,-0.7039,-0.7046,-0.7032,-0.7065,-0.7069,-0.7103,-0.7116,-0.7122,-0.7129,-0.7114,-0.7172,-0.7177,-0.7182,-0.7201,-0.7208,-0.712,-0.712,-0.712,-0.712,0,-0.7029,-0.7047,-0.7067,-0.7079,-0.7089,-0.7112,-0.7106,-0.7117,-0.711,-0.7108,-0.7136,-0.714,-0.7155,-0.7162,-0.7154,-0.7196,-0.7188,-0.7173,-0.7149,-0.7192,-0.721,-0.7217,-0.7124,-0.7123,-0.7122,-0.7122,0,0,-0.7097,-0.7104,-0.7111,-0.7117,-0.7124,-0.7138,-0.7161,-0.7176,-0.7186,-0.7195,-0.7214,-0.7237,-0.7224,-0.7231,-0.7224,-0.7242,-0.7285,-0.7225,-0.7225,-0.7237,-0.7332,-0.7344,-0.7353,-0.7276,-0.7278,-0.7279,-0.7332,0,-0.7147,-0.7186,-0.7178,-0.7217,-0.7235,-0.7218,-0.7238,-0.7244,-0.7244,-0.7259,-0.7258,-0.7275,-0.7255,-0.726,-0.7276,-0.7276,-0.7304,-0.7272,-0.7295,-0.7296,-0.7295,-0.7362,-0.7375,-0.7425,-0.7339,-0.734,-0.7341,0,-0.721,-0.7222,-0.7263,-0.7268,-0.7275,-0.7293,-0.7306,-0.7321,-0.7328,-0.7326,-0.7335,-0.7325,-0.7349,-0.7324,-0.7356,-0.7335,-0.7344,-0.7345,-0.7347,-0.735,-0.7322,-0.7368,-0.744,-0.7448,-0.7351,-0.735,-0.735,0,-0.7258,-0.7283,-0.7311,-0.7317,-0.7323,-0.7336,-0.734,-0.7346,-0.7355,-0.7367,-0.7373,-0.7388,-0.7396,-0.7407,-0.7401,-0.7383,-0.7435,-0.7409,-0.7435,-0.7436,-0.7448,-0.7447,-0.7524,-0.7452,-0.7452,-0.7452,-0.7451,0,-0.7315,-0.7341,-0.7333,-0.735,-0.7379,-0.737,-0.7399,-0.74,-0.7406,-0.7424,-0.7409,-0.7426,-0.7417,-0.7433,-0.7429,-0.7457,-0.746,-0.746,-0.7459,-0.7462,-0.7463,-0.7469,-0.7466,-0.7454,-0.7453,-0.7453,-0.7452,0,-0.7373,-0.7369,-0.7399,-0.7402,-0.7404,-0.7425,-0.7428,-0.7445,-0.7443,-0.7466,-0.7471,-0.7468,-0.7487,-0.7482,-0.7502,-0.7499,-0.7535,-0.7529,-0.7533,-0.7532,-0.7558,-0.7557,-0.7643,-0.7655,-0.7573,-0.7574,-0.7575,0,-0.741,-0.743,-0.7436,-0.7447,-0.7452,-0.7469,-0.7479,-0.7471,-0.7482,-0.7492,-0.7508,-0.7525,-0.7539,-0.757,-0.757,-0.7585,-0.758,-0.7609,-0.7582,-0.7586,-0.7582,-0.7582,-0.7584,-0.7615,-0.7616,-0.7617,-0.7617,0,-0.7477,-0.7475,-0.7489,-0.7504,-0.7517,-0.7528,-0.7537,-0.7547,-0.7539,-0.7553,-0.7572,-0.7582,-0.7603,-0.7621,-0.7636,-0.7639,-0.7628,-0.7626,-0.7633,-0.7637,-0.7639,-0.764,-0.7549,-0.7624,-0.7623,-0.7623,-0.7623,-0.7622,-0.7527,-0.7545,-0.7552,-0.7569,-0.7576,-0.7585,-0.7601,-0.7602,-0.7618,-0.7634,-0.7628,-0.765,-0.7658,-0.7676,-0.7682,-0.7699,-0.7688,-0.7698,-0.7701,-0.7704,-0.7708,-0.7635,-0.7702,-0.7702,-0.7701,-0.7701,-0.7701,0,-0.7595,-0.7599,-0.7615,-0.7629,-0.7643,-0.763,-0.7641,-0.7653,-0.7673,-0.7681,-0.7695,-0.7718,-0.7735,-0.7737,-0.7753,-0.7767,-0.7762,-0.7772,-0.7771,-0.7773,-0.7716,-0.7709,-0.7776,-0.7776,-0.7776,-0.7776,-0.7776,-0.7776,-0.7632,-0.7661,-0.7659,-0.7691,-0.7695,-0.7716,-0.7724,-0.7733,-0.7739,-0.7765,-0.778,-0.778,-0.7786,-0.7803,-0.7819,-0.7819,-0.7826,-0.7838,-0.7836,-0.7784,-0.7776,-0.7769,-0.7763,-0.784,-0.784,-0.7892,-0.7892,-0.7893]}]]